Tracking 20628 objects as of 6-Apr-2020
HD Live streaming from Space Station
objects crossing your sky now

COSMOS 1455

Track COSMOS 1455 now!
10-day predictions
COSMOS 1455 is classified as:


NORAD ID: 14032
Int'l Code: 1983-037A
Perigee: 507.4 km
Apogee: 529.3 km
Inclination: 82.5 °
Period: 94.8 minutes
Semi major axis: 6889 km
RCS: 6.2678 m2 (large)
Launch date: April 23, 1983
Source: Commonwealth of Independent States (former USSR) (CIS)
Launch site: PLESETSK MISSILE AND SPACE COMPLEX (PKMTR)
aabbcc
Your satellite tracking list
Your tracking list is empty




NASA's NSSDC Master Catalog

Two Line Element Set (TLE):
1 14032U 83037A   20096.73509830  .00000361  00000-0  16009-4 0  9993
2 14032  82.5162 155.5661 0015856 325.3260  34.6938 15.18229990 16625
Source of the keplerian elements: AFSPC